• Processing (Info)

  • MPEC 2019-C31 : 2009 DL1

    The following Minor Planet Electronic Circular may be linked-to from your own Web pages, but must not otherwise be redistributed electronically.

    A form allowing access to any MPEC is at the bottom of this page.


    Read MPEC 2019-C30 Read MPEC 2019-C32


    M.P.E.C. 2019-C31                                Issued 2019 Feb. 7, 02:28 UT
    
         The Minor Planet Electronic Circulars contain information on unusual
             minor planets and routine data on comets.  They are published
        on behalf of Division F of the International Astronomical Union by the
              Minor Planet Center, Smithsonian Astrophysical Observatory,
                              Cambridge, MA 02138, U.S.A.
    
                 Prepared using the Tamkin Foundation Computer Network
    
                                  MPC@CFA.HARVARD.EDU
                URL https://www.minorplanetcenter.net/    ISSN 1523-6714
    
                                       2009 DL1
    
                               Revision to MPEC 2009-D35
    
    Additional Observations:
         K09D01L  C2019 01 03.62948810 35 19.424+13 48 18.47         21.25GVEC031F51
         K09D01L  C2019 01 03.63873310 35 19.876+13 48 16.04         21.05GVEC031F51
         K09D01L  C2019 02 04.41943610 49 04.692+12 24 40.39         19.38GVEC031F51
         K09D01L  C2019 02 04.43107410 49 04.553+12 24 39.87         19.42GVEC031F51
         K09D01L  C2019 02 04.44274310 49 04.408+12 24 39.30         19.41GVEC031F51
         K09D01L  C2019 02 04.45455110 49 04.260+12 24 38.74         19.45GVEC031F51
         K09D01L  C2019 02 05.51062110 48 55.10 +12 23 42.3          19.83cVEC031T05
         K09D01L  C2019 02 05.52584010 48 54.82 +12 23 41.7          19.21cVEC031T05
         K09D01L  C2019 02 05.53172710 48 54.72 +12 23 41.5          19.55cVEC031T05
         K09D01L  C2019 02 05.54448810 48 54.59 +12 23 40.6          19.45cVEC031T05
         K09D01L KC2019 02 06.05934110 48 49.33 +12 23 08.8          19.7 GVEC031L01
         K09D01L KC2019 02 06.13513810 48 48.19 +12 23 04.7          19.5 GVEC031L01
         K09D01L KC2019 02 07.03972 10 48 37.47 +12 22 22.7          19.3 RoEC031K88
         K09D01L KC2019 02 07.07063 10 48 36.93 +12 22 20.9          19.8 RoEC031K88
    
    Observer details:
    F51 Pan-STARRS 1, Haleakala.  Observers J. Bulger, K. Chambers, T. Lowe,
        E. Magnier, A. Schultz, M. Willman.  Measurers S. Chastel, M. Huber,
        Y. Ramanjooloo, R. Wainscoat, R. Weryk.  1.8-m Ritchey-Chretien + CCD.
    K88 GINOP-KHK, Piszkesteto.  Observer K. Sarneczky.  1.02-m
        Ritchey-Chretien + CCD.
    L01 Visnjan Observatory, Tican.  Observers K. Korlevic, G. Kervina.  Measurer
        K. Korlevic.  1.0-m f/2.9 reflector + CCD.
    T05 ATLAS-HKO, Haleakala.  Observers L. Denneau, J. Tonry, A. Heinze,
        H. Weiland, H. Flewelling.  Measurers L. Denneau, J. Tonry, A. Heinze,
        H. Weiland, H. Flewelling, B. Stalder, A. Fitzsimmons, D. Young,
        N. Erasmus.  0.5-m reflector + CCD.
    
    First and last observations above in comparison with prediction:
    Residuals in seconds of arc (or two decimals in degrees), reference and Delta-T
    190103 F51 0.11+ 0.05-    190207 K88 0.20+ 0.09-    MPO159139   -0.14 day
    
    Orbital elements:
    2009 DL1                                                 Earth MOID = 0.1895 AU
    Epoch 2019 Apr. 27.0 TT = JDT 2458600.5                 MPC
    M 355.43569              (2000.0)            P               Q
    n   0.29448304     Peri.  224.91230     -0.78930254     +0.61395673
    a   2.2374973      Node   352.95156     -0.54436143     -0.70549079
    e   0.4681070      Incl.    3.57762     -0.28402839     -0.35403374
    P   3.35           H   19.0           G   0.15           U   0
    Residuals in seconds of arc
    090219 106  0.5-  0.1+    090303 704  0.4+  0.0     090408 H55  0.7+  0.1+
    090219 106  0.3+  0.6-    090303 704  0.1+  0.2+    090409 808  1.3+  1.2-
    090219 106  0.2-  0.4-    090304 857  0.0   0.0     090409 808  0.6-  0.6+
    090219 106  0.6-  0.1+    090304 857  0.1-  0.1-    090409 808  0.3-  0.0
    090219 673  0.2+  0.8+    090307 G96  0.6-  0.2-    090409 H55  0.2+  0.3+
    090219 673  0.2+  0.9+    090307 G96  0.1-  0.3-    090409 H55  0.2+  0.1+
    090219 704  1.0+  0.8+    090307 G96  0.3-  0.3-    090409 H55  0.3+  0.4+
    090219 673  0.4+  0.9+    090307 G96  0.1+  0.3-    090413 I21  0.1+  0.1+
    090219 H06  0.2+  0.3-    090315 H55  0.2+  0.3-    090413 I21  0.2-  0.7+
    090219 704  0.1-  0.2+    090315 H55  0.2+  0.1-    090413 I21  0.3+  0.1-
    090219 673  0.8+  0.9+    090315 H55  0.1+  0.1-    090413 808  0.9-  0.1-
    090219 704  0.7+  1.2+    090317 E16  0.1+  0.3+    090413 808  0.0   0.8-
    090219 H06  0.4+  0.1-    090317 E16  0.1-  0.0     090413 808  0.4+  1.1-
    090219 704  0.7+  0.5+    090317 E16  0.6+  0.3-    090415 I21  0.5+  1.1-
    090219 691  0.2-  0.1-    090319 H26  0.2+  0.2+    090415 I21  0.2+  0.6-
    090219 H01  0.2-  0.0     090319 H26  0.2+  0.4-    090415 I21  0.6+  0.3-
    090219 H01  0.1-  0.1+    090319 H26  0.0   0.4-    090415 I21  0.6+  0.1+
    090219 H01  0.1-  0.1+    090319 H26  0.3-  0.7-    090416 H26  0.3-  0.2+
    090219 691  0.3-  0.2-    090319 H26  0.4+  0.2-    090416 H26  0.4+  0.3-
    090219 H01  0.1-  0.1+    090321 I36  0.0   0.4-    090416 H26  0.4+  0.6-
    090219 691  0.3-  0.1+    090321 I36  0.1-  0.1-    090416 E12  0.0   0.1-
    090219 493  0.2-  0.1-    090321 I36  0.3-  0.2-    090416 E12  0.2+  0.1-
    090219 493  0.2-  0.0     090322 B88  0.2+  0.5-    090416 E12  0.1-  0.2-
    090219 493  0.3-  0.0     090322 B88  0.9+  0.3-    090416 E12  0.2-  0.1+
    090220 204  0.0   0.1-    090322 B88  0.6+  0.4-    090417 I21  0.6-  0.3-
    090220 204  0.1-  0.0     090326 J75  0.5-  0.0     090417 I21  0.7-  0.1-
    090220 204  0.2+  0.1-    090326 J75  0.1-  0.1-    090422 I21  0.4-  0.2+
    090220 673  0.6+  0.6+    090326 J75  0.3-  0.5-    090422 I21  0.1-  0.1+
    090220 673  0.4+  0.7+    090328 H26  0.1+  0.1-    090422 I21  0.3-  0.3-
    090220 673  0.8+  0.5+    090328 H26  0.1+  0.2-    090422 E12  0.2-  0.0
    090220 673  0.8+  0.5+    090328 H26  0.1-  0.1-    090422 E12  0.0   0.2-
    090220 H36  0.3+  0.0     090328 H26  0.6+  0.6-    090426 I21  1.0-  0.0
    090220 H55  0.3-  0.1-    090328 H26  0.0   0.3-    090426 I21  0.2+  0.8-
    090220 H55  0.0   0.1-    090328 H26  0.4-  0.0     090426 I21  0.1-  0.7+
    090220 H36  0.0   0.1-    090328 H26  0.4+  0.7-    090427 I21  0.4-  0.6+
    090220 291  0.1-  0.1+    090328 H26  0.2-  0.2-    090427 I21  0.3-  0.2+
    090220 H36  0.2-  0.3-    090328 H26  0.1-  0.3-    090430 I21  0.3-  0.0
    090220 H55  0.0   0.3-    090328 H26  0.2+  0.2+    090430 I21  0.4-  0.4-
    090220 291  0.0   0.3+    090328 E12  0.3-  0.3+    090430 I21  0.3-  0.5-
    090220 291  0.1-  0.3+    090328 E12  0.1-  0.5+    090501 E16  0.1-  0.0
    090220 854  1.2+  0.1+    090328 E12  0.2+  0.4+    090501 E16  0.0   0.1+
    090220 854  1.0+  0.6+    090328 E12  0.1+  0.3+    090501 E16  0.1-  0.0
    090220 854  1.2+  0.1-    090329 704  0.1+  0.1-    090503 I21  0.9-  1.2+
    090220 H01  0.1+  0.2+    090329 704  0.1-  0.2-    090503 I21  0.1-  0.4+
    090220 H01  0.0   0.1+    090329 704  0.9-  0.3+    090503 E16  0.2+  0.1-
    090220 H01  0.1+  0.0     090329 704  0.4-  0.5+    090503 E16 (1.9-  2.8-)
    090220 H01  0.0   0.1+    090329 704  0.2-  0.5+    090503 E16 (2.6-  1.1-)
    090221 291  0.2-  0.0     090330 704  0.1+  0.1-    090504 E12  0.0   0.0
    090221 291  0.0   0.0     090330 704  0.6+  0.5+    090504 E12  0.0   0.1+
    090221 291  0.2+  0.0     090330 704  0.2-  0.1+    090504 E12  0.1-  0.0
    090222 704  0.8+  0.2+    090330 704  0.2+  0.2+    090504 E12  0.0   0.1+
    090222 704  0.5+  0.6+    090330 704  0.4+  0.0     090515 D21  0.0   0.1-
    090222 704  0.7+  0.1+    090330 H55  0.1+  0.3-    090515 D21  0.3+  0.3+
    090222 704  0.5-  0.1-    090330 H55  0.2+  0.0     090515 D21  0.2+  0.2+
    090222 704  0.2+  0.1+    090330 H55  0.2+  0.3-    090521 808  0.1-  0.2+
    090223 H55  0.4+  0.0     090330 379  1.0-  0.5+    090521 808  1.2+  0.0
    090223 H55  0.3+  0.2-    090330 379  0.7-  0.1+    090521 808  0.2-  0.8-
    090223 H55  0.2+  0.1-    090330 379  0.0   0.2-    090523 I20  0.1+  0.1+
    090224 691  0.2-  0.1+    090330 379  0.3-  0.4+    090523 I20  0.2+  0.2+
    090224 691  0.0   0.0     090330 379  0.4-  0.2+    090523 I20  0.2+  0.1+
    090224 691  0.1+  0.1-    090330 379  0.2-  0.4+    090531 808  0.4-  0.1+
    090227 691  0.1-  0.1-    090330 379  0.2-  0.1+    090531 808  0.4+  0.3+
    090227 691  0.1-  0.1-    090401 H53  0.3+  0.2-    090602 808 (2.0+  1.3+)
    090302 857  0.6+  0.1-    090401 H53  0.6-  1.3-    090602 808 (2.6-  0.9-)
    090302 857  0.4-  0.1+    090401 H53  1.4-  0.3+    090602 808  1.1+  0.7+
    090302 704 (0.7+  2.3+)   090401 H53  0.4+  0.3+    090611 808  0.4+  0.1-
    090302 704  0.4-  0.4+    090401 H53  0.8+  0.1-    090611 808  0.1+  0.2+
    090302 704 (0.4+  2.2+)   090401 H53  0.8-  0.1-    090611 808  0.7+  0.4+
    090302 704 (0.0   2.2+)   090402 379  0.9-  0.4-    190103 F51  0.5-  0.1+
    090302 704 (0.4+  1.8+)   090402 379  0.6-  0.2-    190103 F51  0.5-  0.1+
    090302 H55  0.2+  0.0     090402 379  1.0-  0.3+    190204 F51  0.0   0.1-
    090302 H55  0.1+  0.0     090402 379  0.6-  0.3+    190204 F51  0.0   0.1-
    090302 H55  0.3+  0.0     090404 H55  0.4+  0.1+    190204 F51  0.0   0.1-
    090302 474  0.0   0.1+    090404 H55  0.1+  0.1+    190204 F51  0.0   0.1-
    090302 474  0.0   0.2+    090404 H55  0.0   0.1+    190205 T05  0.4+  0.1+
    090302 474  0.1+  0.0     090407 E16  0.7-  0.6+    190205 T05  0.2-  0.3+
    090303 704  0.1+  1.0-    090407 E16 (0.2-  1.7+)   190205 T05  0.3-  0.4+
    090303 704  0.3+  0.2+    090407 E16 (0.9+  2.2+)   190205 T05  0.7+  0.2+
    090303 704  0.3+  0.1+    090408 H55  0.1+  0.0     190206 L01  0.0   0.0
    090303 H55  0.0   0.1-    090408 H55  0.1+  0.1+    190206 L01  0.3+  0.0
    090303 H55  0.0   0.0     090408 H55  0.4+  0.0     190207 K88  0.2+  0.0
    090303 H55  0.1-  0.0     090408 H55  0.3+  0.0     190207 K88  0.3+  0.3-
    090303 H55  0.2+  0.0     090408 H55  0.6+  0.0
    
    Ephemeris:
    2009 DL1                 a,e,i = 2.24, 0.47, 4                   q = 1.1901
    Date    TT    R. A. (2000) Decl.     Delta      r     Elong.  Phase     V
    2019 01 08    10 38 58.0 +13 30 25   0.8990  1.7115   130.7    25.8    21.1
    ...
    2019 01 23    10 47 34.2 +12 44 13   0.7192  1.6207   143.7    21.1    20.4
    ...
    2019 01 31    10 49 12.2 +12 29 48   0.6361  1.5730   151.3    17.5    19.9
    ...
    2019 02 06    10 48 50.1 +12 23 20   0.5802  1.5377   157.3    14.3    19.6
    2019 02 07    10 48 38.1 +12 22 33   0.5714  1.5319   158.4    13.7    19.5
    2019 02 08    10 48 23.7 +12 21 51   0.5628  1.5261   159.4    13.1    19.4
    ...
    2019 02 14    10 46 07.9 +12 18 42   0.5147  1.4917   165.8     9.3    19.0
    ...
    2019 02 22    10 41 02.5 +12 14 54   0.4597  1.4471   174.3     3.9    18.5
    ...
    2019 03 09    10 27 00.4 +11 50 04   0.3844  1.3690   166.1    10.0    18.3
    
    A. U. Tomatic                (C) Copyright 2019 MPC           M.P.E.C. 2019-C31
    

    Read MPEC 2019-C30 Read MPEC 2019-C32


    MPEC number:

    Enter an MPEC number in one of the following forms:

    • 1997-B01 (the full form)
    • J97B01 (the packed version of the full form)
    • B01 (the abbreviated form)